808 visiteurs
Prévisions de votre ville :
Vigilance : 1 département Mise à jour le 07/12/2019 à 11:00 - Voir la carte

Paris Roissy CDG (95380) le 07/12/2019 à 14:30 Choisir station

11°C 71 % O Vit. moyenne 13 kmh/h

Relevés météo quotidiens pour la station de :

UTC
S: Synop
M: Metar
Loc T°C
(°C)
Td
(°C)
HR
(%)
Vis
(km)
Néb
(octa)
Vent
(km/h)
Pression
(mb)
Précipitations
(mm)
Temps
              MOY
10 min
DIR RAF 1h MESURE VAR SUR 3h    
S 00 h 02h 16.0 5.9 51 - 56 85 1010.1 -0.3/3h 0.0/6h - 0.0/3h -
S 01 h 03h 15.6 6.3 54 - 37 83 1010.1 0.0/3h 0.0/1h -
S 02 h 04h 15.2 6.5 56 - 19 56 1010.6 +0.5/3h 0.0/1h -
S 03 h 05h 15.3 5.8 53 - 9 19 1010.5 +0.4/3h 0.0/3h -
S 04 h 06h 13.6 6.9 64 - 22 33 1011.1 +0.9/3h 0.0/1h -
S 05 h 07h 13.7 8.7 72 - 19 30 1011.4 +0.7/3h 0.0/1h -
S 06 h 08h 14.4 11.7 84 - 9 24 1011.5 +1.0/3h 0.0/12h - 0.0/3h -
S 07 h 09h 15.2 13.0 87 - 15 26 1011.8 +0.8/3h 0.0/1h -
S 08 h 10h 17.2 8.6 57 - 6 15 1011.8 +0.6/3h 0.0/1h -
S 09 h 11h 17.2 9.4 60 18 7/8 6 13 1012.4 +1.0/3h 0.0/3h
S 10 h 12h 17.0 8.4 57 - 30 63 1012.4 +0.7/3h 0.0/1h -
S 11 h 13h 14.9 7.0 59 - 20 70 1013.2 +1.2/3h 0.0/1h -
S 12 h 14h 15.5 5.1 50 - 4 13 1012.8 +0.3/3h 0.0/6h - 0.0/3h -
S 13 h 15h 15.1 6.9 58 - 9 26 1013.0 +0.4/3h 0.0/1h -
S 14 h 16h 15.3 8.5 64 - 15 24 1012.7 -0.4/3h 0.0/1h -
S 15 h 17h 16.2 8.7 61 - 33 48 1012.4 -0.4/3h 0.0/3h -
S 16 h 18h 15.0 7.3 60 - 24 31 1012.6 -0.4/3h 0.0/1h -
S 17 h 19h 15.1 7.1 59 - 20 33 1012.9 +0.1/3h 0.0/1h -
S 18 h 20h 14.8 7.8 63 20 7/8 22 30 1013.0 +0.5/3h 0.0/12h - 0.0/3h
S 19 h 21h 14.7 8.0 64 - 37 63 1013.5 +0.9/3h 0.0/1h -
S 20 h 22h 14.6 8.3 66 - 35 57 1013.8 +0.9/3h 0.0/1h -
S 21 h 23h 14.2 8.4 68 - 20 31 1013.9 +0.9/3h 0.0/3h -
S 22 h 00h 12.9 10.1 83 - 19 30 1013.9 +0.3/3h 0.2/1h -
S 23 h 01h 12.2 9.9 86 - 20 46 1013.8 -0.1/3h 0.6/1h -
evolution des temperatures
cumul des precipitations
vent moyen et rafales
pression atmospherique

Un tiret (-) signifie que les données ne sont pas disponibles.

Passez la souris sur les pictos temps pour avoir plus de précisions. Passez les flèches sur l'icône de la direction du vent pour voir la direction précise en degrés.

Les données de l'heure en cours sont disponibles à partir de H+15 minutes.


S signifie station Synop, plus complète qu'une station Metar (M). Il y a +1h de différence entre l'heure UTC et l'heure légale en hiver et +2h en été.

Td est la mesure du point de rosée.

HR est l'humidité relative/p>

Vis est la visibilité

Néb est la nébulosité du ciel (couverture nuageuse) exprimée en octas (de 0/8 à 8/8).

Vent moy 10 min donne le vent moyen sur les 10 minutes qui précèdent le relevé.

Vent raf 1h donne la rafale maximale mesurée dans l'heure qui précède le relevé.


Les données les plus anciennes remontent à avril 2014.

Les données présentées sur cette page proviennent des stations météo officielles. Les relevés sont effectués aux normes en vigueur (anémomètre à 10m de haut, thermomètre sous abri normalisé à 2m du sol...)

Météo 60 décline toute responsabilité en cas d'absence de données, d'erreurs, de mauvaise utilisation ou interprétation et n'est pas habilité à fournir des certificats intempéries.